Previsão horária em Alozaina

Hoje, 25 Janeiro, Segunda-feira

Tempo Temperatura Precipitação Vento Pressão Humidade
00:00 +9°C° 0 mm 2 m/s 715 mmHg 85%
01:00 +9°C° 0 mm 2 m/s 715 mmHg 84%
02:00 +9°C° 0 mm 2 m/s 715 mmHg 84%
03:00 +9°C° 0 mm 2 m/s 715 mmHg 84%
04:00 +9°C° 0 mm 2 m/s 715 mmHg 86%
05:00 +9°C° 0 mm 2 m/s 715 mmHg 88%
06:00 +9°C° 0 mm 2 m/s 715 mmHg 89%
07:00 +10°C° 0 mm 1 m/s 715 mmHg 89%
08:00 +11°C° 0 mm 1 m/s 716 mmHg 87%
09:00 +11°C° 0 mm 1 m/s 716 mmHg 85%
10:00 +12°C° 0 mm 1 m/s 717 mmHg 81%
11:00 +13°C° 0 mm 2 m/s 717 mmHg 77%
12:00 +14°C° 0 mm 2 m/s 717 mmHg 72%
13:00 +15°C° 0 mm 2 m/s 717 mmHg 73%
14:00 +15°C° 0 mm 2 m/s 717 mmHg 73%
15:00 +15°C° 0 mm 2 m/s 717 mmHg 74%
16:00 +14°C° 0.1 mm 2 m/s 717 mmHg 78%
17:00 +14°C° 0.1 mm 1 m/s 717 mmHg 83%
18:00 +13°C° 0.1 mm 1 m/s 717 mmHg 87%
19:00 +13°C° 0 mm 1 m/s 718 mmHg 88%
20:00 +12°C° 0 mm 1 m/s 718 mmHg 88%
21:00 +12°C° 0 mm 1 m/s 718 mmHg 89%
22:00 +12°C° 0 mm 1 m/s 718 mmHg 89%
23:00 +11°C° 0 mm 1 m/s 719 mmHg 89%

Amanhã, 26 Janeiro, Terça-feira

Tempo Temperatura Precipitação Vento Pressão Humidade
00:00 +11°C° 0 mm 1 m/s 719 mmHg 90%
01:00 +11°C° 0 mm 1 m/s 719 mmHg 90%
02:00 +11°C° 0 mm 1 m/s 719 mmHg 90%
03:00 +11°C° 0 mm 1 m/s 719 mmHg 90%
04:00 +11°C° 0 mm 1 m/s 719 mmHg 90%
05:00 +11°C° 0 mm 1 m/s 719 mmHg 91%
06:00 +11°C° 0 mm 1 m/s 719 mmHg 91%
07:00 +11°C° 0 mm 1 m/s 719 mmHg 90%
08:00 +12°C° 0 mm 1 m/s 720 mmHg 89%
09:00 +13°C° 0 mm 1 m/s 720 mmHg 88%
10:00 +14°C° 0 mm 1 m/s 721 mmHg 84%
11:00 +15°C° 0 mm 2 m/s 721 mmHg 79%
12:00 +16°C° 0 mm 2 m/s 721 mmHg 75%
13:00 +16°C° 0 mm 2 m/s 721 mmHg 74%
14:00 +16°C° 0 mm 2 m/s 721 mmHg 73%
15:00 +17°C° 0 mm 3 m/s 720 mmHg 72%
16:00 +15°C° 0 mm 2 m/s 720 mmHg 77%
17:00 +14°C° 0 mm 2 m/s 720 mmHg 81%
18:00 +13°C° 0 mm 2 m/s 720 mmHg 86%
19:00 +13°C° 0 mm 2 m/s 721 mmHg 87%
20:00 +12°C° 0 mm 2 m/s 721 mmHg 88%
21:00 +12°C° 0 mm 2 m/s 721 mmHg 89%
22:00 +12°C° 0 mm 2 m/s 721 mmHg 88%
23:00 +12°C° 0 mm 2 m/s 721 mmHg 88%

Depois de amanhã, 27 Janeiro, Quarta-feira

Tempo Temperatura Precipitação Vento Pressão Humidade
00:00 +12°C° 0 mm 2 m/s 721 mmHg 87%
01:00 +12°C° 0 mm 2 m/s 721 mmHg 87%
02:00 +12°C° 0 mm 2 m/s 720 mmHg 88%
03:00 +12°C° 0 mm 2 m/s 720 mmHg 88%
04:00 +10°C° 0 mm 2 m/s 720 mmHg 89%
05:00 +10°C° 0 mm 2 m/s 720 mmHg 89%
06:00 +10°C° 0 mm 2 m/s 720 mmHg 90%
07:00 +12°C° 0 mm 2 m/s 720 mmHg 88%
08:00 +13°C° 0 mm 1 m/s 720 mmHg 86%
09:00 +14°C° 0 mm 1 m/s 721 mmHg 85%
10:00 +15°C° 0 mm 1 m/s 721 mmHg 80%
11:00 +18°C° 0 mm 1 m/s 721 mmHg 75%
12:00 +19°C° 0 mm 1 m/s 721 mmHg 70%
13:00 +18°C° 0 mm 2 m/s 721 mmHg 69%
14:00 +18°C° 0 mm 2 m/s 720 mmHg 69%
15:00 +18°C° 0 mm 2 m/s 720 mmHg 69%
16:00 +17°C° 0 mm 2 m/s 720 mmHg 75%
17:00 +16°C° 0 mm 2 m/s 720 mmHg 81%
18:00 +14°C° 0 mm 1 m/s 720 mmHg 87%
19:00 +14°C° 0 mm 2 m/s 720 mmHg 87%
20:00 +14°C° 0 mm 2 m/s 720 mmHg 87%
21:00 +13°C° 0 mm 2 m/s 721 mmHg 87%
22:00 +13°C° 0 mm 2 m/s 721 mmHg 88%
23:00 +13°C° 0 mm 2 m/s 721 mmHg 89%

28 Janeiro, Quinta-feira

Tempo Temperatura Precipitação Vento Pressão Humidade
00:00 +13°C° 0 mm 2 m/s 721 mmHg 90%
01:00 +13°C° 0 mm 2 m/s 721 mmHg 90%
02:00 +12°C° 0 mm 2 m/s 720 mmHg 90%
03:00 +12°C° 0 mm 2 m/s 720 mmHg 90%
04:00 +12°C° 0 mm 2 m/s 720 mmHg 90%
05:00 +12°C° 0 mm 2 m/s 720 mmHg 89%
06:00 +12°C° 0 mm 1 m/s 720 mmHg 88%
07:00 +13°C° 0 mm 1 m/s 721 mmHg 86%
08:00 +14°C° 0 mm 1 m/s 721 mmHg 83%
09:00 +14°C° 0 mm 1 m/s 721 mmHg 81%
10:00 +16°C° 0 mm 1 m/s 722 mmHg 75%
11:00 +18°C° 0 mm 1 m/s 722 mmHg 69%
12:00 +20°C° 0 mm 1 m/s 722 mmHg 63%
13:00 +20°C° 0 mm 1 m/s 722 mmHg 62%
14:00 +21°C° 0 mm 1 m/s 721 mmHg 60%
15:00 +21°C° 0 mm 1 m/s 721 mmHg 59%
16:00 +19°C° 0 mm 1 m/s 721 mmHg 66%
17:00 +18°C° 0 mm 1 m/s 720 mmHg 73%
18:00 +15°C° 0 mm 1 m/s 720 mmHg 80%

29 Janeiro, Sexta-feira

Tempo Temperatura Precipitação Vento Pressão Humidade

30 Janeiro, Sábado

Tempo Temperatura Precipitação Vento Pressão Humidade
Mostrar mais

Necessitamos do seu Consentimento

A Meteoprog e os seus Fornecedores de Serviços podem armazenar e aceder a dados pessoais como cookies, identificadores do dispositivo ou outras tecnologias semelhantes existentes no seu dispositivo e processar estes dados para personalizar conteúdos e anúncios, assim como funcionalidades nas redes sociais e análise de tráfego.

  • Armazenar e/ou aceder a informações no seu dispositivo

    Os cookies, identificadores do dispositivo ou outras informações podem ser armazenados ou acedidos no seu dispositivo, para os fins acima indicados.

  • Anúncios e conteúdos personalizados, medição de anúncios e conteúdos, dados sobre o público-alvo e desenvolvimento de produtos

    Os anúncios e os conteúdos podem ser personalizados com base num perfil. Podem ser adicionados dados adicionais para uma maior personalização dos anúncios e dos conteúdos. A eficácia dos anúncios e dos conteúdos pode ser medida. Podem ser obtidas informações sobre o público que visualizou os anúncios e os conteúdos. Estes dados podem ser usados para desenvolver ou melhorar sistemas, softwares ou a experiência do utilizador.

Ao clicar em "Eu concordo”, permitirá o uso de cookies, identificadores do dispositivo e web beacons mencionados ou outras tecnologias semelhantes. As configurações do navegador do seu dispositivo podem ser alteradas.

Para certos fins, podem ser invocados interesses legítimos ao invés de consentimento. Pode ler mais informação sobre este assunto na nossa Política de Privacidade e Cookies.